Location: Gipe Farm
(40.9466°N, 95.5370°W)
Time: 18:30:21
(UTC-05:00)

Daily predictions for brighter satellites

Satellite Brightness Start Highest point End
(mag) Time Altitude Azimuth Time Altitude Azimuth Time Altitude Azimuth
OAO 2 Rocket 4.0 20:18:13 10° WSW 20:22:53 42° S 20:27:39 10° ESE
Cosmos 1980 Rocket 3.4 20:21:54 10° SE 20:25:49 20° E 20:29:45 10° NE
USA 186 2.9 20:24:07 10° SE 20:26:29 22° ENE 20:28:45 10° NNE
ALOS 2.6 20:22:23 10° SE 20:26:51 47° ENE 20:31:20 10° N
Cosmos 1025 Rocket 4.4 20:23:58 10° NNW 20:28:06 43° W 20:32:11 10° SSW
Cosmos 2369 3.7 20:23:15 10° SSW 20:28:56 85° ESE 20:34:40 10° NNE
H-2A R/B 3.4 20:26:28 10° SE 20:30:05 37° ENE 20:33:44 10° N
Cosmos 1898 Rocket 4.2 20:26:31 10° N 20:31:26 37° ENE 20:36:17 10° SE
HJ-1C 4.1 20:29:19 10° S 20:32:33 56° W 20:35:49 10° NNW
Cosmos 1821 Rocket 4.3 20:28:09 10° SSW 20:34:14 74° W 20:40:20 10° N
Cosmos 1605 Rocket 4.0 20:31:13 10° S 20:37:28 68° E 20:43:41 10° NNE
Cosmos 2084 3.6 20:34:13 10° NNW 20:38:12 55° NE 20:42:24 10° SE
DELTA 2 R/B (1) 3.9 20:33:04 10° W 20:38:33 58° SSW 20:43:49 11° ESE
H-2A R/B 4.1 20:39:16 10° ENE 20:39:45 10° ENE 20:40:14 10° NE
FENGYUN 3A 3.7 20:34:46 10° SSE 20:40:02 64° ENE 20:45:21 10° N
Cosmos 1656 3.7 20:35:21 10° S 20:40:52 60° ESE 20:46:20 10° NNE
Cosmos 1626 Rocket 3.7 20:37:21 10° N 20:41:40 53° E 20:45:55 10° SSE
Meteor 2-15 Rocket 4.5 20:35:37 10° N 20:41:44 89° WSW 20:47:47 10° S
Meteor 1-29 4.0 20:39:09 10° N 20:42:32 51° WNW 20:45:55 10° SSW
Cosmos 468 Rocket 4.3 20:38:02 10° S 20:42:49 41° ESE 20:47:38 10° NNE
EO 1 Delta rocket 4.1 20:39:49 10° NNE 20:44:34 62° E 20:50:10 10° S
CZ-3C R/B 4.5 19:26:34 10° WSW 20:45:00 38° SSW 20:55:17 10° SE
Cosmos 1455 Rocket 3.5 20:41:42 10° SSW 20:45:59 67° W 20:50:21 10° N
Cosmos 1975 2.9 20:42:32 10° S 20:46:33 59° E 20:50:36 10° NNE
Tiangong 1 1.1 20:44:41 10° WNW 20:47:48 74° N 20:50:14 15° E
Cosmos 220 Rocket 3.9 20:44:56 10° NNW 20:49:10 82° ENE 20:53:23 10° SSE
Lacrosse 5 rocket 2.1 20:46:56 10° WNW 20:50:28 42° SW 20:53:54 10° SSE
Cosmos 1602 Rocket 3.5 20:47:28 10° N 20:51:56 70° E 20:56:19 10° SSE
CZ-2D R/B 3.2 20:50:24 10° SSE 20:54:16 82° ENE 20:58:11 10° N
Cosmos 1500 3.4 20:51:45 10° SSE 20:55:20 44° E 20:58:57 10° NNE
Cosmos 1814 Rocket 4.3 20:50:30 10° S 20:55:35 47° ESE 21:00:39 10° NNE
Cosmos 2227 Rocket 2.9 20:50:43 10° NNW 20:56:15 55° WSW 21:01:43 10° S
Cosmos 2322 Rocket 3.8 21:00:47 13° E 21:00:47 13° E 21:02:48 10° ENE
Cosmos 2061 Rocket 4.4 20:55:49 10° SSE 21:01:37 41° E 21:07:23 10° NNE
Cosmos 1340 4.0 20:59:42 10° NNE 21:02:46 22° ENE 21:03:56 19° E
CZ-4B DEB 4.2 21:01:54 10° S 21:05:01 41° W 21:08:09 10° NNW
Cosmos 2297 Rocket 2.8 21:05:35 10° NNW 21:11:08 58° WSW 21:16:40 10° S
Cosmos 858 Rocket 4.5 21:07:12 10° NNW 21:12:31 77° ENE 21:17:03 14° SSE
Cosmos 1459 Rocket 4.1 21:08:36 10° SSE 21:14:26 53° E 21:20:21 10° NNE
Cosmos 1515 3.9 21:15:59 10° NNW 21:19:50 73° W 21:23:37 10° S
Iridium 4 Rocket 3.3 21:15:45 10° N 21:20:43 82° W 21:25:13 10° S
Cosmos 2058 Rocket 4.1 21:22:24 25° E 21:22:40 25° E 21:26:23 10° NNE
Cosmos 1606 Rocket 4.0 21:22:36 24° SSE 21:24:47 41° E 21:28:57 10° NNE
Cosmos 1939 Rocket 3.2 21:24:09 29° SE 21:25:55 50° ENE 21:29:58 10° N
Envisat 3.2 21:26:38 25° SE 21:29:21 53° ENE 21:34:18 10° N
Lacrosse 5 1.9 21:25:14 10° NW 21:30:18 77° SW 21:32:58 28° SSE
Resurs 01 Rocket 4.4 21:28:02 10° SW 21:30:50 16° W 21:33:38 10° NW
Cosmos 1937 Rocket 3.5 21:26:15 10° NNW 21:31:34 89° ENE 21:35:08 21° SSE
BREEZE-M DEB (TANK) 4.3 21:29:55 10° NW 21:33:34 55° NNE 21:39:45 22° E
BREEZE-M DEB (TANK) 2.6 21:32:21 10° NW 21:34:32 40° NNE 21:35:26 32° ENE
Cosmos 1743 2.6 21:34:26 16° S 21:37:31 83° E 21:41:27 10° N
SPOT 5 3.4 21:38:12 34° ESE 21:39:27 40° ENE 21:43:54 10° N
Cosmos 990 Rocket 3.9 21:35:25 10° NNW 21:40:42 80° ENE 21:43:14 31° SSE
SJ-11-01 4.4 21:41:59 22° S 21:45:01 75° WSW 21:49:44 10° NNW
Cosmos 1697 Rocket 3.4 21:39:45 10° SW 21:45:17 55° WNW 21:50:51 10° NNE
Cosmos 1726 Rocket 3.5 21:46:06 42° SSE 21:47:22 62° E 21:51:44 10° NNE
ERS-1 Rocket 3.1 21:48:35 24° S 21:51:40 73° WSW 21:56:42 10° NNW
CZ-4 DEB 3.7 21:51:47 36° SW 21:52:31 43° W 21:55:33 10° NNW
RESURS DK-1 3.2 21:49:12 10° NW 21:53:10 46° WSW 21:54:48 30° SSW
SL-08 R/B 4.4 21:50:02 22° S 21:54:05 65° E 22:00:12 10° NNE
H-2A R/B 3.7 21:56:29 17° ENE 21:56:29 17° ENE 21:59:09 10° NNE
Cosmos 1802 Rocket 4.1 21:50:34 10° S 21:56:58 84° W 22:03:27 10° N
SL-16 R/B 2.6 21:57:52 41° E 21:57:52 41° E 22:02:45 10° NE
ARGOS 3.8 21:57:43 34° E 21:58:13 35° ENE 22:03:04 10° N
Terra 3.9 21:59:15 13° NE 21:59:15 13° NE 22:00:54 10° NNE
Cosmos 836 Rocket 4.4 21:58:49 33° S 22:01:10 65° ESE 22:06:26 10° NNE
Cosmos 1825 Rocket 4.0 21:58:01 10° NNW 22:02:22 60° W 22:04:05 34° SSW
Cosmos 2016 Rocket 3.9 21:58:34 12° S 22:04:19 87° W 22:10:34 10° N
Cosmos 1763 Rocket 3.6 22:00:04 10° SSW 22:05:09 71° WNW 22:10:14 10° NNE
OAO 2 Rocket 4.1 22:02:39 10° WSW 22:07:11 36° SSW 22:07:11 36° SSW
MetOp-B 4.1 22:07:20 55° SE 22:08:21 68° ENE 22:13:40 10° N
Cosmos 1980 Rocket 2.8 22:03:42 10° SW 22:09:17 58° WNW 22:14:56 10° NNE
Cosmos 1842 3.5 22:08:56 10° N 22:12:18 65° N 22:12:18 65° N
Cosmos 1953 Rocket 3.9 22:09:38 10° NNW 22:14:03 62° W 22:15:00 49° SSW
SPOT 1/Viking Rocket 3.7 22:15:02 52° ENE 22:15:08 52° ENE 22:20:12 10° N
H-2A R/B 2.0 22:15:02 72° WSW 22:15:09 72° WSW 22:19:19 10° NNW
Cosmos 2098 Rocket 3.9 22:12:46 23° S 22:17:11 89° ESE 22:22:50 10° N
Cosmos 2228 3.7 22:20:02 45° NNE 22:20:02 45° NNE 22:23:06 10° NNE
Cosmos 1375 Rocket 4.4 22:12:22 10° SSW 22:18:53 69° ESE 22:25:27 10° NE
Cosmos 1666 3.3 22:20:21 52° NNW 22:20:21 52° NNW 22:23:26 10° N
Cosmos 1125 Rocket 3.3 22:14:39 10° NNW 22:19:53 73° ENE 22:20:07 71° E
USA 245 4.4 22:22:53 59° SE 22:24:02 73° ENE 22:30:20 10° N
Tiangong 1 3.8 22:21:21 10° W 22:22:11 16° W 22:22:11 16° W
USA 215 4.3 22:21:34 25° ENE 22:24:20 36° NNE 22:30:10 10° NW
SL-19 R/B 4.2 22:20:05 10° NNE 22:24:57 61° ENE 22:24:57 61° ENE
BREEZE-M DEB (TANK) 3.6 22:14:00 10° WSW 22:26:09 73° NNW 22:27:44 42° NE
YAOGAN 6 3.8 22:28:05 41° NNW 22:28:05 41° NNW 22:30:38 10° NNW
Cosmos 841 Rocket 4.3 22:24:34 10° SW 22:29:38 49° WNW 22:34:42 10° N
BREEZE-M DEB (TANK) 4.1 22:09:07 10° WNW 22:29:48 67° NNE 22:31:51 45° E
Cosmos 1758 Rocket 4.4 22:28:17 10° NNW 22:32:25 44° W 22:32:43 43° WSW
Cosmos 1864 Rocket 4.4 22:30:39 42° SSW 22:32:54 80° W 22:39:03 10° N
Cosmos 2263 Rocket 2.6 22:29:29 10° NNW 22:34:32 48° NE 22:34:32 48° NE
SL-08 RB Rocket 4.4 22:38:06 46° NNE 22:38:06 46° NNE 22:41:33 10° N
ASTEX 1 3.9 22:32:31 10° N 22:37:24 56° W 22:38:30 46° SW
Cosmos 540 Rocket 4.1 22:39:10 46° NNE 22:39:10 46° NNE 22:42:46 10° NNE
Cosmos 2322 Rocket 2.2 22:42:28 62° SW 22:43:23 77° WNW 22:49:02 10° NNE
Tsikada Rocket 4.2 22:39:26 10° NNW 22:45:48 68° W 22:47:16 52° SSW
Meteor 2-5 Rocket 4.1 22:45:16 10° N 22:50:21 57° NE 22:50:21 57° NE
Meteor 2-17 Rocket 4.3 22:52:22 82° WSW 22:52:34 84° W 22:58:39 10° N
Cosmos 372 Rocket 4.4 22:50:00 10° NNW 22:54:09 59° NNW 22:54:09 59° NNW
Lacrosse 5 4.4 23:11:02 10° W 23:12:11 11° WSW 23:12:11 11° WSW
Cosmos 2278 Rocket 4.3 23:23:10 10° N 23:25:52 16° NE 23:25:52 16° NE
H-2A R/B 3.5 23:37:08 33° NW 23:37:08 33° NW 23:39:55 10° NNW
Terra 3.6 23:38:08 29° NNW 23:38:08 29° NNW 23:40:28 10° NNW
SL-16 R/B 3.9 23:39:37 23° W 23:41:41 29° NW 23:46:37 10° N
Cosmos 1844 Rocket 4.2 23:41:04 10° N 23:44:10 29° NNE 23:44:10 29° NNE
Cosmos 2360 Rocket 3.7 23:56:06 32° N 23:56:06 32° N 23:59:13 10° NNE
